Location: Chrząstowo
(52.0654°N, 17.1290°E)
Time: 22:21:38
(UTC+01:00)

ISS - Visible Passes

Search period start: 19 January 2018 00:00
Search period end: 29 January 2018 00:00
Orbit: 402 x 407 km, 51.6° (Epoch: 20 January)

Date Brightness Start Highest point End Pass type
(mag) Time Alt. Az. Time Alt. Az. Time Alt. Az.
26 Jan -1.3 18:55:27 10° SSW 18:56:11 14° SSW 18:56:11 14° SSW visible
27 Jan -1.8 18:03:55 10° S 18:05:55 15° SE 18:06:11 15° SE visible
27 Jan -0.6 19:38:41 10° WSW 19:38:51 11° WSW 19:38:51 11° WSW visible
28 Jan -2.5 18:46:31 10° SW 18:48:46 31° S 18:48:46 31° S visible
